• en Belgique
  • Liste des pays
  • À 7 jours
  • Température de l'eau
  • Carte satellitaire
  • Carte météo
  • Widgets météo
  • user-avatar
    Se connecter

    Météo par heure à Arlon

    Ce jour, 22 Août, Mercredi

    Heure Température Précipitation Vent Pression Humidité
    00:00 +19°C° 0 mm 1 m/s 734 mmHg 89%
    01:00 +18°C° 0 mm 1 m/s 733 mmHg 89%
    02:00 +18°C° 0 mm 1 m/s 733 mmHg 90%
    03:00 +18°C° 0 mm 1 m/s 733 mmHg 90%
    04:00 +18°C° 0 mm 1 m/s 733 mmHg 89%
    05:00 +19°C° 0 mm 1 m/s 733 mmHg 87%
    06:00 +18°C° 0 mm 0 m/s 733 mmHg 86%
    07:00 +22°C° 0 mm 1 m/s 733 mmHg 78%
    08:00 +24°C° 0 mm 1 m/s 734 mmHg 71%
    09:00 +26°C° 0 mm 1 m/s 734 mmHg 64%
    10:00 +27°C° 0 mm 1 m/s 734 mmHg 59%
    11:00 +28°C° 0 mm 2 m/s 733 mmHg 55%
    12:00 +29°C° 0 mm 2 m/s 733 mmHg 50%
    13:00 +29°C° 0 mm 2 m/s 733 mmHg 49%
    14:00 +29°C° 0 mm 2 m/s 733 mmHg 49%
    15:00 +29°C° 0 mm 3 m/s 733 mmHg 48%
    16:00 +28°C° 0 mm 2 m/s 732 mmHg 55%
    17:00 +26°C° 0 mm 2 m/s 732 mmHg 61%
    18:00 +25°C° 0 mm 2 m/s 732 mmHg 68%
    19:00 +23°C° 0 mm 2 m/s 732 mmHg 73%
    20:00 +22°C° 0 mm 1 m/s 732 mmHg 79%
    21:00 +20°C° 0 mm 1 m/s 732 mmHg 84%
    22:00 +20°C° 0 mm 1 m/s 732 mmHg 86%
    23:00 +19°C° 0 mm 1 m/s 732 mmHg 88%

    Demain, 23 Août, Jeudi

    Heure Température Précipitation Vent Pression Humidité
    00:00 +19°C° 0 mm 1 m/s 732 mmHg 89%
    01:00 +17°C° 0 mm 0 m/s 732 mmHg 90%
    02:00 +16°C° 0 mm 0 m/s 732 mmHg 90%
    03:00 +16°C° 0 mm 0 m/s 731 mmHg 90%
    04:00 +17°C° 0 mm 0 m/s 731 mmHg 89%
    05:00 +17°C° 0 mm 0 m/s 731 mmHg 87%
    06:00 +18°C° 0 mm 0 m/s 731 mmHg 86%
    07:00 +22°C° 0 mm 1 m/s 731 mmHg 78%
    08:00 +24°C° 0 mm 2 m/s 731 mmHg 70%
    09:00 +26°C° 0 mm 2 m/s 732 mmHg 63%
    10:00 +26°C° 0,3 mm 3 m/s 731 mmHg 61%
    11:00 +27°C° 0,3 mm 3 m/s 731 mmHg 58%
    12:00 +28°C° 0,3 mm 4 m/s 730 mmHg 56%
    13:00 +28°C° 0,4 mm 3 m/s 730 mmHg 57%
    14:00 +28°C° 0,4 mm 3 m/s 730 mmHg 59%
    15:00 +27°C° 0,4 mm 3 m/s 730 mmHg 60%
    16:00 +26°C° 0,5 mm 3 m/s 729 mmHg 66%
    17:00 +24°C° 0,5 mm 3 m/s 729 mmHg 73%
    18:00 +23°C° 0,5 mm 2 m/s 729 mmHg 80%
    19:00 +20°C° 0,1 mm 2 m/s 729 mmHg 84%
    20:00 +19°C° 0,1 mm 2 m/s 729 mmHg 88%
    21:00 +18°C° 0,1 mm 2 m/s 730 mmHg 92%
    22:00 +17°C° 0 mm 2 m/s 730 mmHg 93%
    23:00 +17°C° 0 mm 2 m/s 729 mmHg 94%

    Après-demain, 24 Août, Vendredi

    Heure Température Précipitation Vent Pression Humidité
    00:00 +16°C° 0 mm 2 m/s 729 mmHg 95%
    01:00 +16°C° 0 mm 2 m/s 729 mmHg 96%
    02:00 +15°C° 0 mm 2 m/s 729 mmHg 96%
    03:00 +15°C° 0 mm 2 m/s 729 mmHg 97%
    04:00 +14°C° 0 mm 2 m/s 729 mmHg 96%
    05:00 +13°C° 0 mm 3 m/s 729 mmHg 96%
    06:00 +13°C° 0 mm 3 m/s 729 mmHg 95%
    07:00 +14°C° 0 mm 3 m/s 730 mmHg 91%
    08:00 +15°C° 0 mm 4 m/s 730 mmHg 86%
    09:00 +17°C° 0 mm 4 m/s 730 mmHg 81%
    10:00 +17°C° 0,1 mm 5 m/s 730 mmHg 73%
    11:00 +19°C° 0,1 mm 5 m/s 731 mmHg 65%
    12:00 +20°C° 0,1 mm 6 m/s 731 mmHg 57%
    13:00 +20°C° 0 mm 6 m/s 731 mmHg 53%
    14:00 +20°C° 0 mm 6 m/s 731 mmHg 50%
    15:00 +20°C° 0 mm 6 m/s 730 mmHg 47%
    16:00 +17°C° 0 mm 5 m/s 731 mmHg 51%
    17:00 +17°C° 0 mm 4 m/s 731 mmHg 55%
    18:00 +16°C° 0 mm 3 m/s 731 mmHg 59%
    19:00 +13°C° 0 mm 3 m/s 731 mmHg 64%
    20:00 +13°C° 0 mm 2 m/s 731 mmHg 68%
    21:00 +10°C° 0 mm 2 m/s 731 mmHg 73%
    22:00 +10°C° 0 mm 2 m/s 731 mmHg 76%
    23:00 +9°C° 0 mm 2 m/s 731 mmHg 79%

    25 Août, Samedi

    Heure Température Précipitation Vent Pression Humidité
    00:00 +8°C° 0 mm 2 m/s 731 mmHg 82%
    01:00 +8°C° 0 mm 2 m/s 731 mmHg 84%
    02:00 +8°C° 0 mm 2 m/s 730 mmHg 85%
    03:00 +7°C° 0 mm 2 m/s 730 mmHg 87%
    04:00 +8°C° 0,1 mm 3 m/s 730 mmHg 86%
    05:00 +9°C° 0,1 mm 3 m/s 730 mmHg 84%
    06:00 +8°C° 0,1 mm 4 m/s 730 mmHg 82%
    07:00 +10°C° 0,2 mm 4 m/s 730 mmHg 79%
    08:00 +10°C° 0,2 mm 5 m/s 730 mmHg 76%
    09:00 +11°C° 0,2 mm 6 m/s 730 mmHg 73%
    10:00 +11°C° 0,5 mm 6 m/s 730 mmHg 76%
    11:00 +12°C° 0,5 mm 5 m/s 730 mmHg 80%
    12:00 +12°C° 0,5 mm 5 m/s 729 mmHg 84%
    13:00 +13°C° 0,2 mm 5 m/s 730 mmHg 76%
    14:00 +14°C° 0,2 mm 5 m/s 730 mmHg 68%
    15:00 +15°C° 0,2 mm 5 m/s 730 mmHg 60%
    16:00 +14°C° 0 mm 5 m/s 730 mmHg 62%
    17:00 +13°C° 0 mm 4 m/s 730 mmHg 64%
    18:00 +12°C° 0 mm 3 m/s 730 mmHg 65%
    19:00 +12°C° 0 mm 2 m/s 731 mmHg 71%
    20:00 +9°C° 0 mm 2 m/s 731 mmHg 76%
    21:00 +9°C° 0 mm 1 m/s 732 mmHg 81%
    22:00 +8°C° 0 mm 1 m/s 732 mmHg 83%
    23:00 +8°C° 0 mm 1 m/s 732 mmHg 85%

    26 Août, Dimanche

    Heure Température Précipitation Vent Pression Humidité
    00:00 +8°C° 0 mm 1 m/s 732 mmHg 87%
    01:00 +7°C° 0 mm 1 m/s 732 mmHg 88%
    02:00 +7°C° 0 mm 1 m/s 732 mmHg 89%
    03:00 +7°C° 0 mm 1 m/s 732 mmHg 90%
    04:00 +8°C° 0 mm 1 m/s 733 mmHg 88%
    05:00 +7°C° 0 mm 0 m/s 733 mmHg 86%
    06:00 +8°C° 0 mm 0 m/s 733 mmHg 84%
    07:00 +11°C° 0 mm 1 m/s 733 mmHg 75%
    08:00 +13°C° 0 mm 1 m/s 734 mmHg 66%
    09:00 +16°C° 0 mm 1 m/s 734 mmHg 57%
    10:00 +17°C° 0 mm 2 m/s 734 mmHg 52%
    11:00 +18°C° 0 mm 2 m/s 733 mmHg 47%
    12:00 +19°C° 0 mm 2 m/s 733 mmHg 42%
    13:00 +19°C° 0 mm 2 m/s 733 mmHg 41%
    14:00 +19°C° 0 mm 2 m/s 733 mmHg 40%
    15:00 +20°C° 0 mm 2 m/s 732 mmHg 38%
    16:00 +18°C° 0 mm 2 m/s 732 mmHg 43%
    17:00 +17°C° 0 mm 2 m/s 732 mmHg 47%
    18:00 +16°C° 0 mm 1 m/s 732 mmHg 52%
    19:00 +15°C° 0 mm 1 m/s 732 mmHg 51%
    20:00 +14°C° 0 mm 1 m/s 732 mmHg 50%
    21:00 +13°C° 0 mm 1 m/s 732 mmHg 50%
    22:00 +13°C° 0 mm 2 m/s 732 mmHg 51%
    23:00 +13°C° 0 mm 2 m/s 732 mmHg 51%

    27 Août, Lundi

    Heure Température Précipitation Vent Pression Humidité
    00:00 +13°C° 0 mm 2 m/s 732 mmHg 52%
    01:00 +13°C° 0,1 mm 2 m/s 731 mmHg 53%
    02:00 +12°C° 0,1 mm 3 m/s 731 mmHg 54%
    03:00 +12°C° 0,1 mm 3 m/s 731 mmHg 55%
    04:00 +12°C° 0,1 mm 3 m/s 731 mmHg 60%
    05:00 +12°C° 0,1 mm 3 m/s 731 mmHg 66%
    06:00 +11°C° 0,1 mm 4 m/s 731 mmHg 71%
    07:00 +12°C° 0,2 mm 4 m/s 731 mmHg 74%
    08:00 +12°C° 0,2 mm 4 m/s 732 mmHg 77%
    09:00 +12°C° 0,2 mm 4 m/s 732 mmHg 80%
    10:00 +13°C° 0,1 mm 3 m/s 732 mmHg 79%
    11:00 +14°C° 0,1 mm 3 m/s 732 mmHg 79%
    12:00 +14°C° 0,1 mm 3 m/s 732 mmHg 79%
    13:00 +17°C° 0 mm 3 m/s 732 mmHg 77%
    14:00 +18°C° 0 mm 3 m/s 732 mmHg 75%
    15:00 +20°C° 0 mm 3 m/s 732 mmHg 73%
    16:00 +19°C° 0,1 mm 2 m/s 732 mmHg 77%
    17:00 +18°C° 0,1 mm 2 m/s 732 mmHg 81%
    18:00 +19°C° 0,1 mm 1 m/s 732 mmHg 85%
    19:00 +18°C° 0 mm 1 m/s 732 mmHg 87%
    20:00 +16°C° 0 mm 1 m/s 733 mmHg 90%
    21:00 +15°C° 0 mm 1 m/s 733 mmHg 92%
    22:00 +15°C° 0 mm 1 m/s 733 mmHg 92%
    23:00 +14°C° 0 mm 1 m/s 733 mmHg 93%
    Voir plus